Location: Logan
(41.7360°N, 111.8340°W)
Time: 05:29:24
(UTC-06:00)

Daily predictions for brighter satellites

Satellite Brightness Start Highest point End
(mag) Time Altitude Azimuth Time Altitude Azimuth Time Altitude Azimuth
Cosmos 2360 Rocket 4.1 00:14:22 22° NE 00:14:22 22° NE 00:16:19 10° NNE
Cosmos 1980 Rocket 4.2 00:07:25 15° W 00:10:46 24° NW 00:15:20 10° N
BREEZE-M DEB (TANK) 4.3 00:05:20 10° WNW 00:24:18 69° WSW 00:24:18 69° WSW
BREEZE-M DEB (TANK) 4.4 00:14:28 10° WNW 00:23:44 46° WNW 00:23:44 46° WNW
Cosmos 2263 Rocket 3.8 00:35:13 10° NNW 00:38:03 29° NW 00:38:03 29° NW
Cosmos 2322 Rocket 3.7 00:42:06 31° NW 00:42:06 31° NW 00:46:22 10° N
Cosmos 2278 Rocket 3.9 01:17:04 10° N 01:20:23 29° NNE 01:20:23 29° NNE
COSMOS 2455 4.3 01:54:24 31° NE 01:54:24 31° NE 01:57:27 10° NE
Cosmos 2360 Rocket 4.1 01:56:07 22° NW 01:56:07 22° NW 01:59:37 10° N
CZ-2C R/B 4.2 01:54:15 10° N 01:57:13 32° N 01:57:13 32° N
CZ-4C R/B 4.4 02:13:58 17° ENE 02:13:58 17° ENE 02:15:45 10° ENE
Cosmos 2219 Rocket 3.6 02:19:19 33° N 02:19:19 33° N 02:22:32 10° NNE
Cosmos 2333 Rocket 3.5 02:27:46 38° N 02:27:46 38° N 02:31:21 10° NNE
SL-16 R/B 3.7 02:28:18 32° NE 02:28:18 32° NE 02:31:29 10° NE
ATLAS 3B R/B 3.1 02:27:45 69° NNE 02:27:45 69° NNE 02:34:09 10° NE
Cosmos 2237 Rocket 3.4 02:34:13 38° N 02:34:13 38° N 02:37:45 10° NNE
Lacrosse 4 Rocket 4.5 02:48:38 10° NNW 02:48:38 10° NNW 02:48:47 10° NNW
Cosmos 2278 Rocket 4.5 03:01:20 10° NW 03:02:11 14° NW 03:02:11 14° NW
ATLAS CENTAUR R/B 4.3 03:11:14 10° N 03:14:09 17° NE 03:16:55 10° E
USA 238 DEB 3.7 03:15:30 83° N 03:15:30 83° N 03:22:21 10° NE
USA 238 3.7 03:15:37 83° N 03:15:37 83° N 03:22:27 10° NE
USA 234 3.6 03:11:21 10° NE 03:17:15 53° ESE 03:17:15 53° ESE
IRS-1C 4.5 03:25:19 10° NNE 03:29:52 61° NE 03:29:52 61° NE
NOSS 3-2 (A) 3.8 03:32:17 55° ESE 03:32:17 55° ESE 03:38:35 10° NE
COSMOS 2455 4.3 03:37:32 25° NW 03:37:55 25° NW 03:42:48 10° N
Cosmos 1943 4.4 03:39:49 32° ESE 03:40:31 33° ESE 03:45:31 10° NE
Cosmos 1726 4.2 03:44:38 27° NE 03:44:38 27° NE 03:46:38 10° NNE
Cosmos 1607 4.2 03:43:19 56° NW 03:43:19 56° NW 03:49:20 10° NNE
CZ-2D R/B 3.0 03:42:27 10° NNE 03:47:26 41° E 03:48:11 38° ESE
NOSS 3-2 (C) 3.7 03:47:18 55° SE 03:47:48 57° ESE 03:54:13 10° NE
Cosmos 1151 Rocket 4.5 03:49:52 32° NNW 03:49:52 32° NNW 03:52:23 10° N
CZ-3A R/B 4.3 03:46:59 24° WNW 03:49:56 33° NNW 03:53:58 10° NE
Cosmos 2369 Rocket 3.3 03:46:24 10° NNW 03:51:44 43° ENE 03:57:03 10° SE
Okean O Rocket 4.3 03:52:44 10° ENE 03:55:17 15° E 03:57:46 10° SE
Cosmos 1271 Rocket 4.0 04:00:38 39° N 04:00:38 39° N 04:03:15 10° N
CZ-4C R/B 2.5 03:59:09 52° NW 03:59:15 52° NW 04:05:10 10° NNE
NPP 4.3 03:56:04 10° N 04:00:34 42° NW 04:00:34 42° NW
Cosmos 839 Rocket 4.5 03:58:39 10° NNW 04:07:06 78° ENE 04:13:46 10° SE
Cosmos 494 Rocket 4.5 04:09:18 47° SE 04:10:16 54° ESE 04:15:24 10° NNE
SL-16 R/B 3.5 04:10:11 26° WNW 04:10:23 26° NW 04:15:07 10° N
Cosmos 2333 Rocket 4.5 04:09:47 11° NW 04:11:04 12° NW 04:13:13 10° NNW
Spot 4 Rocket 4.1 04:11:11 10° N 04:16:17 61° WNW 04:16:17 61° WNW
IRS-1D 3.4 04:11:46 10° NNE 04:16:59 88° WNW 04:17:38 70° SSW
Cosmos 2237 Rocket 4.4 04:16:02 11° WNW 04:17:17 12° NW 04:19:26 10° NNW
ADEOS 3.7 04:12:38 10° N 04:17:43 54° WNW 04:17:43 54° WNW
ATLAS 3B R/B 4.3 04:15:00 19° WNW 04:18:22 26° NW 04:24:23 10° NNE
SL-16 R/B 2.4 04:19:31 44° S 04:21:38 76° WSW 04:27:51 10° NNW
Cosmos 1943 Rocket 3.9 04:16:57 10° N 04:22:05 33° ENE 04:27:09 10° ESE
Cosmos 2292 Rocket 4.4 04:19:42 10° N 04:21:50 33° NE 04:21:50 33° NE
Meteor 1-27 4.0 04:23:04 61° SSW 04:24:03 80° W 04:29:39 10° N
S3M 4.4 04:26:35 42° W 04:27:10 43° WNW 04:33:09 10° N
Resurs 1-4 Rocket 2.0 04:23:11 10° NNE 04:28:28 83° WNW 04:29:37 56° SSW
ERS-2 3.4 04:25:32 10° N 04:27:57 33° NNW 04:27:57 33° NNW
Cosmos 2242 Rocket 3.7 04:28:45 58° SSE 04:29:33 76° E 04:34:09 10° N
ARIANE 5 R/B 2.6 04:25:23 10° N 04:30:34 63° WNW 04:31:17 56° WSW
Cosmos 1869 Rocket 4.4 04:27:41 10° NNW 04:30:49 38° NW 04:30:49 38° NW
UNK 3.8 04:33:46 58° W 04:33:46 58° W 04:38:06 10° NNW
EO 1 Del DPAF 3.2 04:34:02 88° N 04:34:02 88° N 04:37:55 10° NNW
UNKNOWN OBJECT B 2.6 04:30:58 10° NNE 04:34:38 78° E 04:34:38 78° E
Cosmos 1331 Rocket 3.9 04:29:41 10° NNW 04:34:57 74° WSW 04:37:16 34° S
Cosmos 1869 4.4 04:36:34 26° SE 04:38:18 41° E 04:42:04 10° NNE
MOS 1-B 4.3 04:33:55 10° NNE 04:39:45 86° ESE 04:42:27 34° SSW
ERBS 4.3 04:43:21 21° NW 04:43:26 21° NNW 04:46:13 10° NNE
Cosmos 1862 Rocket 4.3 04:42:22 24° SSE 04:44:43 51° E 04:48:59 10° NNE
Iridium 2 3.5 04:45:53 10° N 04:49:41 70° W 04:49:53 68° WSW
BREEZE-M DEB (TANK) 4.0 04:46:45 24° W 04:50:36 42° NW 04:53:59 10° NE
Cosmos 724 4.2 04:49:25 37° SSW 04:51:57 89° WNW 04:58:01 10° NNE
ATLAS 5 CENTAUR R/B 2.2 04:51:04 33° S 04:53:07 61° ESE 04:58:13 10° NE
Cosmos 1709 Rocket 3.9 04:47:07 10° NNW 04:53:26 69° W 04:58:27 17° S
ATLAS CENTAUR R/B 1.2 04:49:28 10° NW 04:53:47 67° WSW 04:57:41 10° SSE
SeaSat 1 2.3 04:49:01 10° SSE 04:53:57 83° WSW 04:58:55 10° NNW
Cosmos 1892 2.7 04:54:17 10° NNW 04:58:05 56° W 04:58:22 54° WSW
Meteor 2-3 Rocket 4.2 04:54:55 10° NNW 05:00:17 41° W 05:02:11 32° SW
USA 234 3.8 04:54:25 10° NE 05:00:41 50° NNW 05:04:35 23° W
Cosmos 2251 Rocket 4.2 05:02:13 32° W 05:03:43 38° WNW 05:08:37 10° N
IRS-1C Rocket 4.1 04:58:56 10° NNE 05:04:14 82° ESE 05:08:17 18° S
SL-27 R/B 3.7 05:07:20 15° SSE 05:10:01 40° ESE 05:13:27 10° NNE
Cosmos 1733 Rocket 3.0 05:07:52 10° NNW 05:12:12 65° W 05:15:54 14° S
Cosmos 2074 Rocket 4.1 05:08:33 10° N 05:14:48 78° E 05:21:02 10° S
Cosmos 2184 Rocket 4.2 05:10:13 10° N 05:16:38 78° E 05:22:59 10° S
COSMOS 2406 4.0 05:12:07 10° S 05:17:39 50° ESE 05:23:12 10° NE
Cosmos 1726 4.4 05:19:19 12° WNW 05:19:19 12° WNW 05:20:14 10° NW
PSLV R/B 3.7 05:16:31 10° N 05:20:14 62° WNW 05:22:11 26° SSW
Pageos (A) 2.7 05:21:21 10° N 05:23:31 87° W 05:24:10 39° S
Cosmos 1943 3.9 05:21:40 23° WSW 05:24:28 37° WNW 05:29:42 10° N
CZ-2D R/B 3.2 05:22:59 10° N 05:27:17 26° WNW 05:29:30 20° W
BREEZE-M DEB (TANK) 3.8 05:24:19 10° WNW 05:28:12 71° SSW 05:38:18 10° SE
Cosmos 1455 3.1 05:29:33 25° WSW 05:30:51 31° WNW 05:34:23 10° NNW
CZ-4B DEB 4.2 05:25:54 10° NNE 05:31:24 84° WNW 05:36:51 10° SSW
Okean O Rocket 1.8 05:27:36 10° N 05:31:57 52° WNW 05:35:14 17° SW
Okean-O 3.5 05:29:11 10° NNE 05:33:32 52° E 05:37:51 10° S
Cosmos 2221 Rocket 4.1 05:29:24 10° S 05:33:46 62° E 05:38:09 10° NNE
Cosmos 2369 Rocket 3.0 05:30:52 10° NW 05:35:30 27° WSW 05:40:09 10° SSW
CZ-4B R/B 3.1 05:31:19 10° N 05:36:37 69° WNW 05:41:51 10° SSW
Cosmos 1908 Rocket 3.5 05:34:39 10° NNW 05:39:03 75° W 05:43:23 10° S
Abrixas rocket 4.2 05:36:50 10° NW 05:39:43 26° N 05:42:36 10° ENE
ARGOS Delta rocket 4.5 05:39:17 10° N 05:43:12 31° WNW 05:46:03 16° SW
CENTAUR R/B 2.5 05:39:04 13° SW 05:44:39 86° NW 05:51:35 10° NE
Cosmos 2285 Rocket 4.0 05:38:36 10° NNW 05:45:05 86° WSW 05:51:28 10° SSE
ADEOS Rocket 3.8 05:37:29 10° NNE 05:45:14 78° ESE 05:52:59 10° S
Sich 1 Rocket 3.8 05:43:16 10° NNW 05:47:29 47° W 05:51:42 10° SSW
Aureole 3 Rocket 4.1 05:40:46 10° S 05:48:22 85° E 05:53:42 10° N
CZ-4C R/B 4.4 05:46:04 10° WNW 05:49:23 15° NNW 05:52:56 10° N
Cosmos 389 Rocket 3.3 05:48:05 16° SW 05:50:16 31° WNW 05:53:27 10° N
CZ-2C R/B 4.4 05:48:17 10° SSW 05:52:12 30° W 05:56:07 10° NW
Meteor 1-31 Rocket 4.2 05:50:14 10° NNE 05:53:49 39° E 05:57:24 10° SSE
Cosmos 1703 Rocket 3.6 05:52:16 10° SSW 05:56:42 66° W 06:01:11 10° N
PSLV R/B 3.2 05:56:27 12° W 05:59:34 80° S 06:02:57 10° E
Cosmos 1862 3.7 05:57:12 10° NNW 06:00:57 40° W 06:04:40 10° SSW
Cosmos 407 Rocket 4.1 05:56:53 10° S 06:01:59 60° ESE 06:07:10 10° NNE
CZ-4B R/B 3.6 05:59:17 10° N 06:02:29 29° WNW 06:05:43 10° SW
Cosmos 1943 Rocket 2.7 06:00:40 10° NW 06:05:49 37° WSW 06:10:55 10° S
SL-16 R/B 4.3 06:05:25 10° W 06:06:13 10° W 06:07:02 10° WNW
Resurs 1-4 Rocket 4.1 06:05:43 10° NW 06:07:28 12° WNW 06:09:13 10° WNW
Cosmos 1825 2.9 06:06:40 10° NNW 06:10:05 32° W 06:13:29 10° SSW
COSMOS 2487 3.1 06:09:53 10° S 06:13:26 61° ESE 06:17:00 10° NNE
Cosmos 1408 3.5 06:11:17 10° NNW 06:14:31 28° W 06:17:47 10° SSW
Cosmos 1933 4.3 06:10:55 10° SW 06:14:32 30° WNW 06:18:11 10° NNW
Feng Yun 1-1 Rocket 4.2 06:10:48 10° N 06:16:10 71° WNW 06:21:32 10° SSW
PSLV R/B 4.0 06:16:08 10° N 06:20:17 43° WNW 06:24:26 10° SW
